Weather History for Albuquerque Double Eagle, NM

Change the Weather History Date:

Saturday, December 29, 2012

  Actual Average Record
Temperature  
Mean Temperature 18 °F -  
Max Temperature 32 °F - - ()
Min Temperature 5 °F - - ()
Degree Days  
Heating Degree Days 46    
Moisture  
Dew Point 2 °F    
Average Humidity 57    
Maximum Humidity 79    
Minimum Humidity 27    
Precipitation  
Precipitation 0.00 in - - ()
Sea Level Pressure  
Sea Level Pressure 30.19 in    
Wind  
Wind Speed 5 mph (NW)    
Max Wind Speed 13 mph    
Max Gust Speed -    
Visibility 10 miles    
Events      
T = Trace of Precipitation, MM = Missing Value Source: NWS Daily Summary

Daily Weather History Graph

Daily Weather History Graph

Search for Another Location

Airport:

Trip Planner

Search our weather history database for the weather conditions in past years. The results will help you decide how hot, cold, wet, or windy it might be!

Date:

Astronomy

Dec. 29, 2012 Rise Set
Actual Time 7:14 AM MST 5:04 PM MST
Civil Twilight 6:46 AM MST 5:32 PM MST
Nautical Twilight 6:15 AM MST 6:04 PM MST
Astronomical Twilight 5:44 AM MST 6:34 PM MST
Moon 6:35 PM MST (12/29) 7:53 AM MST (12/29)
Length of Visible Light 10h 45m
Length of Day
9h 49m
Full, 98% of the Moon is Illuminated
Dec 29
Full
Jan 4
Last Quarter
Jan 11
New
Jan 18
First Quarter
Jan 26
Full

Hourly Weather History & Observations

Time (MST) Temp. Windchill Dew Point Humidity Pressure Visibility Wind Dir Wind Speed Gust Speed Precip Events Conditions
12:15 AM 15.8 °F 4.2 °F 5.0 °F 62% 30.23 in 10.0 mi West 9.2 mph - N/A   Clear
12:35 AM 10.4 °F -1.5 °F 5.0 °F 79% 30.23 in 10.0 mi WNW 8.1 mph - N/A   Clear
12:55 AM 8.6 °F -5.5 °F 1.4 °F 73% 30.23 in 10.0 mi WNW 10.4 mph - N/A   Clear
1:15 AM 10.4 °F -4.8 °F 1.4 °F 67% 30.22 in 10.0 mi West 12.7 mph - N/A   Clear
1:35 AM 12.2 °F -0.2 °F 5.0 °F 73% 30.22 in 10.0 mi NW 9.2 mph - N/A   Clear
1:55 AM 10.4 °F -0.4 °F 5.0 °F 79% 30.23 in 10.0 mi NW 6.9 mph - N/A   Clear
2:15 AM 8.6 °F - 1.4 °F 73% 30.24 in 10.0 mi Calm Calm - N/A   Clear
2:35 AM 8.6 °F 0.1 °F 1.4 °F 73% 30.24 in 10.0 mi NNW 4.6 mph - N/A   Clear
2:55 AM 8.6 °F 0.1 °F 1.4 °F 73% 30.25 in 10.0 mi North 4.6 mph - N/A   Clear
3:15 AM 8.6 °F -3.7 °F 3.2 °F 79% 30.26 in 10.0 mi NNW 8.1 mph - N/A   Clear
3:35 AM 10.4 °F -2.4 °F 5.0 °F 79% 30.26 in 10.0 mi NNW 9.2 mph - N/A   Clear
3:55 AM 6.8 °F - 1.4 °F 79% 30.26 in 10.0 mi Calm Calm - N/A   Clear
4:15 AM 6.8 °F - 1.4 °F 79% 30.26 in 10.0 mi Calm Calm - N/A   Clear
4:35 AM 8.6 °F - 1.4 °F 73% 30.25 in 10.0 mi Calm Calm - N/A   Clear
5:50 AM 6.8 °F - 1.4 °F 79% 30.26 in 10.0 mi Calm Calm - N/A   Clear
6:50 AM 5.0 °F - -0.4 °F 78% 30.25 in 10.0 mi Calm Calm - N/A   Clear
7:50 AM 8.6 °F -2.6 °F 1.4 °F 73% 30.25 in 10.0 mi Variable 6.9 mph - N/A   Clear
8:50 AM 17.6 °F 9.3 °F 6.8 °F 63% 30.27 in 10.0 mi Variable 5.8 mph - N/A   Clear
9:50 AM 21.2 °F - 6.8 °F 54% 30.28 in 10.0 mi Calm Calm - N/A   Clear
10:50 AM 23.0 °F 12.4 °F 6.8 °F 50% 30.27 in 10.0 mi NE 10.4 mph - N/A   Clear
11:50 AM 26.6 °F 18.2 °F 5.0 °F 40% 30.25 in 10.0 mi East 8.1 mph - N/A   Clear
12:50 PM 28.4 °F 22.2 °F 5.0 °F 37% 30.21 in 10.0 mi SE 5.8 mph - N/A   Clear
1:50 PM 30.2 °F - 3.2 °F 32% 30.18 in 10.0 mi Calm Calm - N/A   Clear
2:50 PM 32.0 °F 26.4 °F 1.4 °F 27% 30.16 in 10.0 mi SSE 5.8 mph - N/A   Clear
4:50 PM 30.2 °F - 1.4 °F 29% 30.13 in 10.0 mi Calm Calm - N/A   Scattered Clouds
5:50 PM 24.8 °F - 1.4 °F 36% 30.14 in 10.0 mi Calm Calm - N/A   Scattered Clouds
6:50 PM 17.6 °F - -2.2 °F 42% 30.16 in 10.0 mi Calm Calm - N/A   Clear
7:50 PM 15.8 °F 7.2 °F -2.2 °F 45% 30.14 in 10.0 mi NNW 5.8 mph - N/A   Clear
8:50 PM 17.6 °F 9.3 °F -0.4 °F 45% 30.13 in 10.0 mi NW 5.8 mph - N/A   Clear
9:15 PM 15.8 °F - -2.2 °F 45% 30.12 in 10.0 mi Calm Calm - N/A   Clear
9:35 PM 15.8 °F - -0.4 °F 49% 30.12 in 10.0 mi Calm Calm - N/A   Clear
9:50 PM 15.8 °F - -2.2 °F 45% 30.11 in 10.0 mi Calm Calm - N/A   Clear
9:55 PM 17.6 °F - -0.4 °F 45% 30.11 in 10.0 mi Calm Calm - N/A   Clear
10:15 PM 19.4 °F - -0.4 °F 42% 30.11 in 10.0 mi Calm Calm - N/A   Clear
10:35 PM 15.8 °F - -2.2 °F 45% 30.11 in 10.0 mi Calm Calm - N/A   Clear
10:55 PM 17.6 °F - -0.4 °F 45% 30.12 in 10.0 mi Calm Calm - N/A   Clear
11:15 PM 17.6 °F - -0.4 °F 45% 30.11 in 10.0 mi Calm Calm - N/A   Clear
11:35 PM 17.6 °F - -0.4 °F 45% 30.11 in 10.0 mi Calm Calm - N/A   Clear
11:55 PM 15.8 °F - -0.4 °F 49% 30.11 in 10.0 mi Calm Calm - N/A   Clear